Regional Weather Roundup
Issued by NWS

Home | Current Version | Previous Version | Text Only | Print | Product List | Glossary On
Versions: 1 2 3 4 5 6 7 8 9 10 11 12 13 14 15 16 17 18 19 20 21 22 23 24 25 26
000
ASUS44 KLIX 270711
RWRLA
LOUISIANA WEATHER ROUNDUP
NATIONAL WEATHER SERVICE NEW ORLEANS LA
200 AM CDT FRI MAY 27 2016

NOTE: "FAIR" INDICATES FEW OR NO CLOUDS BELOW 12,000 FEET WITH NO
      SIGNIFICANT WEATHER AND/OR OBSTRUCTIONS TO VISIBILITY.
      SKY/WX - SKY CONDITION AND SIGNIFICANT WEATHER.
      TMP - AIR TEMPERATURE.    DP   - DEWPOINT TEMPERATURE.
      RH  - RELATIVE HUMIDITY.  PRES - PRESSURE.
      HX  - HEAT INDEX.         WCI  - WIND CHILL INDEX.

*  THESE STATIONS ARE NOT NWS OR FAA STATIONS AND ARE NOT UNDER
   NWS QUALITY CONTROL.

LAZ040-048-061>063-065-066-069-270800-
SOUTHEAST LOUISIANA

CITY           SKY/WX    TMP DP  RH WIND       PRES   REMARKS
N.O. AUDUBON     N/A     79  73  82 MISG        N/A
N.O. INTL ARPT CLOUDY    78  72  81 SE9       29.97F
N.O. LAKEFRONT CLOUDY    79  71  76 SE13      29.99S
N.O. DOWNTOWN* FAIR      79  73  82 S10       29.99S
RESERVE*       FAIR      78  73  83 SE6       29.97F
SLIDELL        MOCLDY    78  72  81 S8        29.98F
BATON ROUGE    CLOUDY    78  71  79 SE9       29.96F
BOOTHVILLE     MOCLDY    76  73  91 SE6       30.00F
BELLE CHASSE   CLOUDY    78  73  84 SE12      29.98S
BOGALUSA*      FAIR      75  70  83 S3        30.00S
GALLIANO*      CLOUDY    79  72  77 S7        29.98S
NEW ROADS*     FAIR      76  72  88 S5        29.96F
GONZALES*      FAIR      76  74  92 S3        29.96S
HAMMOND*       CLOUDY    77  70  78 SE8       29.97F
HOUMA*         CLOUDY    77  72  83 SE8       29.97F
PORT FOURCHON* MOSUNNY   79  73  83 SE13G22   29.98S

$$

LAZ041-044-053-054-270800-
SOUTHWEST LOUISIANA

CITY           SKY/WX    TMP DP  RH WIND       PRES   REMARKS
LAKE CHARLES   CLOUDY    77  75  93 S7        29.92F
LAFAYETTE      CLOUDY    78  73  84 CALM      29.94F
PATTERSON      CLOUDY    77  73  87 SE5       29.96F
SALT POINT       N/A     78  74  87 VRB5      29.94F
NEW IBERIA     CLOUDY    77  73  87 SE5       29.96F
CHENAULT AIRPK CLOUDY    76  74  94 SE7       29.92F

$$

LAZ027-028-270800-
CENTRAL LOUISIANA

CITY           SKY/WX    TMP DP  RH WIND       PRES   REMARKS
FORT POLK      LGT RAIN  72  71  95 S8        29.92F
ALEXANDRIA INT LGT RAIN  75  74  96 S14       29.88F
ALEXANDRIA     LGT RAIN  77  73  87 S12       29.89F

$$

LAZ001-002-270800-
NORTHWEST LOUISIANA

CITY           SKY/WX    TMP DP  RH WIND       PRES   REMARKS
SHREVEPORT     CLOUDY    73  68  84 SE5       29.81R
BARKSDALE AFB  CLOUDY    72  69  92 SE6       29.81S
DTN SHREVEPORT MOCLDY    73  68  84 SE6       29.81S

$$

LAZ014-016-270800-
NORTHEAST LOUISIANA

CITY           SKY/WX    TMP DP  RH WIND       PRES   REMARKS
MONROE         CLOUDY    76  72  87 S10       29.88S
TALLULAH       CLOUDY    77  69  76 S16       29.90F

$$





USA.gov is the U.S. government's official web portal to all federal, state and local government web resources and services.